Back to catalog

STARLINK-36741

AliveCommunicationsSSO
NORAD 67727·PAYLOAD·🇺🇸 United States

Launched Feb 11, 2026 from Vandenberg Space Force Base

Loading…

Next Passes (next 24 hours)

TLE

FreshSource: CelesTrak SupGP

Epoch: Sep 14, 2026, 21:23 UTC

1 67727C 26026G   26257.89145833 -.00010695  00000+0 -33207-3 0  2575
2 67727  97.2846 309.7672 0000924  89.6217  95.1826 15.33437311    12

Track STARLINK-36741 in real time with AllMySat

Download on the App Store